Location: Bremen
(53.0830°N, 8.8000°E)
Time: 16:56:08
(UTC+01:00)

Envisat - Pass Details

Date: 10 October 2022
Orbit: 763 x 765 km, 98.2° (Epoch: 30 November)

Event Time Altitude Azimuth Distance (km) Brightness Sun altitude
Rises 06:33:56 0° 12° (NNE) 3,248 6.5 -11.0°
Reaches altitude 10° 06:36:18 10° 8° (N) 2,317 5.6 -10.6°
Maximum altitude 06:41:15 53° 292° (WNW) 942 3.1 -9.9°
Drops below altitude 10° 06:46:10 10° 217° (SW) 2,300 5.1 -9.2°
Sets 06:48:30 0° 213° (SSW) 3,222 5.9 -8.8°
